Location: B�di�
(14.6834°N, 3.1047°W)
Time: 03:55:28
(UTC+00:00)

OAO 3 Rocket - Pass Details

Date: 24 January 2020
Orbit: 629 x 683 km, 35.0° (Epoch: 16 February)

Event Time Altitude Azimuth Distance (km) Brightness Sun altitude
Rises 18:25:55 0° 257° (WSW) 2,903 9.2 -5.1°
Reaches altitude 10° 18:28:28 10° 267° (W) 1,993 7.2 -5.7°
Maximum altitude 18:32:36 32° 331° (NNW) 1,080 4.4 -6.6°
Drops below altitude 10° 18:36:44 10° 34° (NE) 1,993 5.2 -7.6°
Enters shadow 18:37:52 - 40° (NE) 2,389 5.6 -7.9°
